Location: Home
(42.5358°N, 72.7383°W)
Time: 06:19:10
(UTC-04:00)

N. Korean satellite - Visible Passes

Search period start: 23 October 2021 00:00
Search period end: 02 November 2021 00:00
Orbit: 450 x 495 km, 97.3° (Epoch: 22 October)

Date Brightness Start Highest point End Pass type
(mag) Time Alt. Az. Time Alt. Az. Time Alt. Az.
23 Oct 9.7 05:13:38 10° NE 05:16:01 16° E 05:18:22 10° SE visible
23 Oct 7.3 06:46:01 10° N 06:49:18 32° WNW 06:52:32 10° SW visible
24 Oct 6.5 06:17:39 10° N 06:21:19 74° WNW 06:24:55 10° SSW visible
24 Oct 10.2 18:27:32 10° WSW 18:29:07 12° W 18:30:42 10° WNW visible
25 Oct 7.7 05:49:40 10° NNE 05:53:12 46° E 05:56:41 10° S visible
26 Oct 9.3 05:22:10 10° NE 05:24:58 21° E 05:27:44 10° SE visible
27 Oct 6.6 06:26:34 10° N 06:30:09 55° WNW 06:33:40 10° SSW visible
28 Oct 7.1 05:58:26 10° NNE 06:02:03 61° E 06:05:36 10° S visible
29 Oct 8.9 05:30:44 10° NE 05:33:50 26° E 05:36:53 10° SSE visible
30 Oct 10.0 05:03:58 10° ENE 05:05:28 12° E 05:06:58 10° ESE visible
30 Oct 6.9 06:35:28 10° N 06:38:55 42° WNW 06:42:18 10° SW visible
31 Oct 6.6 06:07:11 10° NNE 06:10:50 81° ESE 06:14:23 10° S visible
31 Oct 9.9 18:16:05 10° SW 18:18:29 17° W 18:20:54 10° NW visible
01 Nov 8.4 05:39:17 10° NNE 05:42:36 33° E 05:45:51 10° SSE visible
